Dewpoint
5 5 5 4 4 3 5 5 5 5 5 6 5 2 2 3 4 4 4 2 1 1 1 4 3 4 5 6 6 6 7 7 6 6 6 6 7 8 7 8 7 7 6
5 5 5 5 5 5 5 5 6 6 5 5 5 3 1 2 2 3 3 3 4 6 5 6 5 6 5 6 6 6 6 6 6 6 5 5 5 5 5 4 3 5 6
3 4 3 3 3 3 4 5 5 5 5 5 5 5 2 -1 1 1 1 1 2 3 3 4 3 3 3 2 2 3 4 5 4 5 4 5 5 5 5 5 3 0 3
3 3 3 3 3 3 3 4 4 4 4 4 4 4 5 4 2 -0 -0 -0 -0 -0 0 0 -0 -0 -1 -1 -0 3 5 5 6 6 6 6 6 5 6 5 3 1 2
3 3 2 -4 -3 2 3 3 3 3 3 4 3 3 4 4 4 4 3 3 3 2 2 2 2 2 2 2 2 2 3 4 5 6 6 5 5 5 5 6 4 3 5
-3 -1 -3 -7 -7 -0 3 3 3 3 3 3 3 3 4 4 3 2 2 2 2 2 2 2 2 2 2 2 2 2 2 3 3 4 5 5 5 5 5 5 4 4 5
-14 -12 -11 -10 -9 -7 -3 -0 0 1 1 2 2 3 3 3 3 3 3 3 4 3 3 3 3 4 4 4 4 4 4 4 4 4 4 4 4 3 3 4 4 4 4
-16 -15 -15 -14 -13 -11 -8 -6 -4 -3 -3 -2 -1 0 2 3 3 3 4 4 3 3 3 3 4 4 3 3 3 3 3 3 3 4 4 3 3 3 2 2 2 2 3
-15 -15 -15 -16 -16 -14 -13 -10 -8 -7 -6 -5 -5 -6 -5 -3 1 2 3 3 3 3 3 3 3 2 2 2 2 3 3 3 3 2 2 1 1 1 2 2 -1 0 1
-12 -13 -14 -15 -15 -15 -15 -14 -12 -11 -10 -9 -9 -8 -9 -10 -11 -10 -4 -1 -0 -2 -3 -6 -7 -8 -11 -10 -5 -0 1 1 1 1 1 -2 -6 -12 -14 -14 -14 -13 -11
-10 -11 -11 -12 -14 -14 -14 -14 -14 -13 -13 -12 -11 -10 -10 -12 -15 -15 -15 -11 -10 -10 -12 -14 -16 -18 -19 -19 -18 -16 -14 -14 -15 -15 -16 -18 -18 -19 -19 -19 -18 -16 -15
-7 -9 -10 -10 -10 -11 -12 -13 -13 -13 -14 -14 -13 -13 -13 -13 -15 -16 -16 -16 -16 -15 -16 -17 -19 -19 -19 -18 -18 -18 -18 -18 -18 -18 -18 -19 -20 -21 -21 -22 -22 -21 -21
-6 -7 -8 -8 -9 -8 -8 -9 -10 -11 -13 -13 -13 -14 -14 -14 -14 -14 -15 -15 -16 -16 -16 -17 -17 -17 -17 -17 -17 -18 -19 -19 -20 -21 -22 -23 -23 -23 -23 -22 -22 -22 -22
-4 -5 -7 -7 -7 -7 -7 -7 -7 -7 -8 -10 -11 -12 -13 -13 -13 -13 -13 -14 -15 -15 -15 -15 -15 -15 -15 -15 -16 -17 -18 -19 -20 -21 -22 -22 -22 -22 -22 -21 -20 -19 -18
-3 -3 -4 -5 -6 -6 -6 -6 -6 -5 -5 -5 -6 -8 -10 -11 -12 -12 -12 -13 -14 -14 -14 -13 -13 -13 -13 -13 -14 -14 -16 -17 -19 -20 -21 -21 -21 -21 -20 -19 -17 -16 -14
-4 -3 -2 -3 -3 -4 -4 -5 -5 -4 -4 -3 -3 -4 -5 -7 -10 -11 -12 -12 -12 -13 -13 -13 -12 -12 -12 -12 -12 -12 -13 -15 -17 -20 -20 -20 -20 -19 -17 -16 -15 -14 -14
-8 -5 -4 -2 -2 -2 -2 -2 -2 -2 -2 -2 -2 -2 -2 -3 -5 -8 -10 -11 -11 -12 -12 -12 -11 -11 -11 -11 -11 -11 -12 -13 -16 -19 -19 -19 -19 -18 -16 -14 -14 -14 -14
-3 -4 -4 -3 -2 -1 -1 -1 -1 -1 -1 -1 -1 -1 -1 -2 -2 -4 -6 -9 -10 -10 -11 -11 -11 -11 -10 -10 -10 -10 -10 -12 -14 -17 -19 -18 -18 -17 -15 -13 -13 -14 -14
-3 -3 -2 -1 -1 -1 -1 -1 -1 -1 -0 -0 -0 -0 -0 -1 -1 -2 -4 -5 -7 -8 -9 -10 -11 -11 -10 -10 -10 -10 -10 -11 -12 -16 -18 -18 -17 -15 -14 -13 -13 -13 -13
-8 -6 -5 -5 -4 -4 -4 -3 -3 -3 -3 -2 -1 -1 -0 0 -0 -1 -1 -2 -3 -5 -7 -8 -9 -10 -10 -10 -10 -10 -9 -10 -11 -15 -16 -17 -16 -15 -13 -13 -13 -13 -13
-8 -8 -8 -8 -7 -6 -6 -5 -4 -3 -3 -3 -2 -1 -0 -0 -0 -0 -0 -1 -1 -2 -4 -6 -8 -9 -9 -10 -9 -10 -9 -9 -11 -11 -14 -16 -16 -14 -13 -12 -13 -12 -13
-9 -9 -8 -8 -8 -7 -7 -6 -6 -5 -4 -4 -3 -3 -1 -1 -1 -1 -1 -1 -1 -1 -2 -3 -5 -7 -8 -9 -9 -10 -9 -9 -10 -10 -14 -16 -16 -14 -12 -12 -12 -12 -12
-8 -8 -8 -8 -7 -7 -6 -6 -6 -6 -5 -5 -5 -4 -2 -2 -2 -2 -2 -2 -1 -1 -2 -3 -4 -5 -8 -7 -9 -9 -8 -8 -9 -10 -14 -16 -15 -14 -12 -12 -12 -12 -12
-6 -7 -7 -8 -8 -8 -7 -6 -5 -5 -5 -4 -4 -3 -3 -3 -3 -2 -2 -2 -2 -2 -2 -3 -4 -5 -6 -7 -8 -8 -7 -8 -9 -10 -15 -16 -15 -14 -12 -12 -12 -12 -12
-5 -6 -6 -7 -7 -7 -6 -5 -4 -4 -4 -4 -4 -3 -3 -3 -3 -3 -3 -3 -2 -3 -3 -4 -4 -5 -6 -7 -7 -7 -7 -8 -8 -13 -15 -15 -15 -13 -12 -12 -12 -12 -12
-4 -5 -5 -6 -6 -5 -4 -4 -4 -4 -4 -4 -3 -3 -3 -3 -3 -3 -3 -3 -3 -3 -4 -4 -5 -6 -6 -7 -7 -7 -8 -8 -10 -15 -15 -15 -14 -13 -12 -12 -12 -12 -12
Wind_Speed
7 7 8 8 8 10 10 10 11 12 14 14 15 13 11 9 9 10 10 9 10 12 14 14 15 16 16 16 17 18 20 21 28 27 24 23 24 25 28 28 31 31 33
8 9 10 13 12 12 12 12 10 11 9 11 11 11 9 7 7 7 8 7 7 8 8 10 10 11 13 13 15 16 18 19 23 27 23 24 25 26 28 32 32 33 34
9 9 11 11 12 12 12 11 11 10 10 11 9 8 8 7 5 6 8 9 8 8 10 12 13 15 17 18 20 20 19 19 21 24 26 23 24 26 28 32 35 37 35
8 9 11 11 11 11 11 11 11 11 10 9 9 9 8 7 6 5 7 9 11 13 15 17 18 20 21 21 21 19 19 19 20 23 24 26 25 25 25 30 35 35 35
6 7 8 9 10 10 9 8 9 10 10 9 9 8 9 9 8 7 7 8 10 11 12 14 15 17 18 19 20 21 22 23 24 26 26 24 28 30 27 23 30 35 34
8 8 7 7 8 8 7 6 7 8 7 7 7 8 8 7 7 7 7 9 10 12 14 15 16 17 18 19 20 20 21 21 22 23 23 23 25 27 28 30 31 31 24
10 10 8 8 7 7 7 7 7 7 7 7 8 8 8 6 7 8 9 9 10 11 11 10 11 11 11 13 13 13 13 14 16 16 17 18 17 22 21 18 18 16 17
12 11 10 10 9 9 8 8 7 7 6 6 7 7 7 7 7 4 3 4 6 7 7 6 6 7 8 7 9 11 13 14 14 13 12 13 13 13 14 15 14 12 13
13 13 12 12 11 11 11 10 10 9 8 8 7 7 7 6 6 5 3 4 4 5 5 5 5 5 6 7 6 8 9 10 11 11 11 9 11 14 17 18 17 18 17
16 15 14 13 14 13 13 13 13 12 12 12 11 11 10 10 8 7 6 5 5 6 7 7 7 7 7 8 7 7 7 8 9 10 14 17 17 17 16 14 14 14 12
19 18 17 16 16 15 15 15 15 14 14 14 14 13 12 11 11 8 7 6 6 7 8 7 7 7 7 7 6 6 7 9 9 10 11 11 12 13 13 13 10 8 8
21 21 20 19 18 17 17 17 17 16 16 16 16 15 14 13 12 10 8 8 8 7 8 8 8 8 8 8 8 8 8 8 9 10 10 10 11 11 11 11 11 12 13
24 24 23 22 21 20 19 19 19 18 17 17 17 16 15 15 14 13 10 9 9 8 9 8 9 9 9 9 9 9 9 8 9 9 10 10 11 11 11 11 12 12 12
27 26 24 25 24 22 22 21 20 19 18 18 17 17 16 16 15 15 13 12 11 10 10 9 9 9 9 9 9 9 9 9 9 9 10 10 11 10 10 10 9 9 10
29 27 26 27 25 24 25 24 24 22 19 19 18 18 17 17 15 16 15 14 14 12 12 12 11 10 10 11 11 12 12 11 11 11 10 11 10 10 10 10 10 10 9
29 28 27 26 26 25 26 27 25 23 22 22 21 21 18 18 17 16 16 15 15 15 15 14 13 13 12 12 13 13 13 13 12 12 12 11 9 9 9 10 10 10 10
26 25 25 26 27 27 26 27 27 25 24 25 23 24 22 21 20 19 18 17 16 18 19 18 16 15 14 14 14 14 13 13 12 11 11 11 10 9 9 9 10 10 9
19 20 22 23 25 26 27 27 28 28 28 28 26 25 24 24 23 21 20 19 21 22 22 20 18 17 16 15 14 14 14 14 13 12 12 11 10 9 9 9 9 10 9
17 17 19 21 22 24 26 27 28 28 29 29 27 26 24 24 24 23 23 25 24 24 22 23 20 19 18 17 16 15 15 14 13 13 12 11 11 9 8 8 8 9 9
15 16 17 19 20 21 23 25 26 26 27 27 28 25 22 22 25 26 27 27 26 26 25 23 22 21 20 19 18 16 15 15 14 12 12 12 11 9 8 7 8 8 8
15 16 18 20 21 22 22 24 25 26 26 26 26 23 20 22 23 25 26 28 26 27 26 23 22 22 22 20 19 17 16 15 14 13 12 12 11 8 7 7 7 8 8
19 21 22 23 24 25 26 26 26 26 27 26 25 24 19 22 23 23 24 24 24 25 25 24 22 23 22 20 18 17 17 16 15 13 13 12 11 9 8 6 7 7 7
23 24 25 26 26 27 28 28 28 27 27 26 25 23 21 21 22 22 21 20 22 23 22 22 24 23 22 21 19 18 18 16 15 14 13 12 11 9 8 7 7 6 6
25 26 25 25 26 27 27 28 27 26 26 25 23 21 20 19 20 20 20 20 21 21 20 21 23 21 21 20 19 19 18 16 15 13 13 12 10 9 9 8 7 7 6
27 26 26 26 26 25 24 23 23 22 22 20 17 17 17 18 19 19 19 19 19 18 18 19 20 18 19 19 18 17 16 15 14 13 12 10 9 9 9 8 8 7 6
27 26 26 25 25 24 22 20 20 18 16 16 15 16 16 17 17 18 18 18 17 16 15 16 16 16 16 16 15 16 15 14 13 12 11 10 9 9 9 9 8 8 7
Wind_Direction
334 333 338 339 341 335 327 322 320 311 316 321 327 330 326 309 286 270 259 267 260 262 258 249 251 257 257 259 263 265 264 266 271 279 278 283 283 283 286 285 284 282 282
324 330 326 322 326 328 328 329 325 323 322 321 325 327 330 316 300 268 248 262 261 268 260 253 258 256 256 258 262 265 270 270 274 281 280 281 281 283 285 286 287 287 285
330 332 322 324 324 321 325 326 332 324 317 316 321 321 321 321 302 259 245 245 251 251 246 247 252 257 263 268 269 271 274 276 277 282 288 287 288 292 292 289 290 291 287
317 331 336 337 333 322 315 318 318 321 323 313 314 319 314 308 301 288 271 264 262 262 262 262 264 266 267 267 269 272 276 277 279 281 283 286 289 292 293 292 295 294 293
310 324 333 345 350 351 344 335 330 322 316 305 303 303 300 298 300 295 285 276 270 268 267 266 264 265 268 271 273 274 274 276 279 283 288 293 296 302 303 291 294 293 297
283 291 311 337 351 358 4 3 357 353 349 339 321 303 289 282 277 275 274 275 274 271 270 270 271 273 271 270 270 271 274 277 280 284 288 288 289 291 292 290 296 298 301
276 282 294 307 317 325 329 334 337 342 348 0 8 10 3 332 286 277 276 278 285 286 284 291 298 303 302 294 294 293 296 297 298 296 299 299 302 306 309 309 307 308 298
276 279 287 294 300 304 307 308 310 318 331 341 348 353 357 357 357 347 320 302 300 307 298 295 301 302 293 281 293 298 298 296 293 292 294 298 303 306 315 324 329 328 319
274 278 284 290 294 295 296 295 296 301 306 310 314 321 327 333 335 356 358 319 316 318 314 315 320 329 344 341 311 295 295 292 292 299 305 308 307 305 299 305 307 297 296
276 279 282 285 287 289 290 290 292 296 298 302 305 310 315 320 328 328 325 322 315 313 316 323 328 326 327 323 318 309 302 300 299 300 300 299 299 304 309 310 305 304 303
274 277 278 280 282 284 286 289 292 294 296 299 300 303 305 310 315 320 315 301 297 302 309 314 322 330 331 327 322 316 306 302 302 305 311 315 315 315 314 314 316 321 321
274 275 276 277 279 281 284 285 287 290 293 295 296 297 298 300 299 302 303 300 300 300 303 308 317 319 321 324 326 323 322 320 320 317 314 314 314 316 319 321 321 323 320
272 272 274 274 274 276 279 282 285 288 290 290 291 293 293 292 291 292 292 290 287 289 295 299 302 311 316 318 320 323 324 318 313 314 316 318 320 321 322 324 322 322 318
264 267 268 270 271 273 274 276 278 281 284 287 289 290 289 290 290 289 287 283 281 282 282 286 294 301 304 309 313 315 314 316 319 320 319 320 321 322 322 323 324 323 318
262 262 263 265 268 269 271 272 273 275 277 279 281 281 283 286 282 278 279 279 278 276 276 278 284 293 300 303 307 311 314 317 317 317 317 320 322 323 326 326 328 328 325
264 264 264 266 267 267 267 270 269 272 274 274 276 278 279 278 275 274 272 271 270 271 271 272 277 284 287 291 297 302 306 310 313 315 315 315 314 315 318 322 326 328 329
266 266 265 264 266 267 269 271 276 277 273 272 273 273 274 274 272 271 270 269 266 266 268 268 269 274 278 280 285 291 298 302 304 305 307 305 304 308 316 320 323 325 329
273 270 265 264 265 267 269 271 273 274 273 275 272 270 268 266 267 265 264 261 259 261 263 265 265 267 270 273 277 283 289 293 295 297 297 296 299 304 308 314 318 321 327
286 284 280 276 273 273 273 273 273 274 275 276 274 272 269 267 264 262 258 257 260 263 262 264 263 263 266 268 268 273 278 282 285 287 289 289 287 287 293 302 308 317 326
289 288 286 285 284 281 279 278 277 276 275 276 275 274 271 264 259 260 260 261 263 264 265 261 262 261 260 262 264 266 268 270 273 278 283 279 278 280 281 288 299 311 320
297 295 292 289 287 284 281 281 281 280 280 279 278 276 271 265 261 260 261 262 263 266 265 264 262 259 257 257 258 260 263 266 267 275 278 276 270 269 268 275 290 305 321
303 301 297 293 290 288 286 283 281 280 280 279 281 281 273 266 266 266 267 267 267 266 263 259 252 255 255 256 257 257 258 259 262 271 272 269 260 259 256 267 284 298 316
306 304 301 298 294 290 286 285 283 282 281 280 280 278 274 271 269 268 269 269 268 269 260 257 251 246 248 250 251 253 254 254 257 264 264 260 251 248 243 254 274 288 303
307 305 303 301 299 296 292 289 285 282 280 278 276 275 273 270 271 270 269 271 271 267 260 257 251 245 244 244 245 247 249 248 257 259 256 250 243 241 235 247 266 278 284
303 301 301 304 305 305 300 295 290 288 286 281 279 274 270 267 269 271 270 269 270 264 260 253 249 241 238 239 244 246 241 246 250 250 245 239 237 232 230 245 263 266 270
298 295 297 301 305 306 304 300 296 291 285 281 276 274 272 268 268 272 272 271 266 258 248 244 242 236 234 235 237 234 238 241 240 238 232 235 233 230 228 245 263 254 255
Height
1482 1479 1476 1474 1471 1469 1466 1464 1461 1459 1456 1453 1450 1447 1444 1442 1441 1440 1441 1442 1442 1443 1444 1444 1445 1448 1449 1449 1450 1450 1450 1449 1446 1446 1446 1446 1445 1443 1442 1440 1438 1436 1433
1481 1478 1476 1473 1470 1467 1464 1461 1459 1456 1454 1451 1448 1445 1443 1441 1440 1439 1440 1440 1440 1441 1441 1442 1442 1444 1444 1445 1445 1444 1443 1443 1441 1438 1440 1439 1438 1436 1433 1431 1429 1427 1424
1479 1476 1474 1471 1468 1465 1462 1459 1456 1454 1452 1449 1446 1444 1442 1440 1438 1438 1438 1438 1438 1438 1438 1439 1439 1440 1440 1440 1440 1439 1438 1437 1435 1433 1432 1432 1431 1429 1426 1423 1421 1418 1416
1478 1475 1472 1469 1465 1462 1460 1458 1456 1453 1451 1448 1446 1443 1441 1439 1438 1436 1436 1436 1436 1436 1435 1435 1435 1435 1435 1435 1434 1433 1432 1431 1430 1429 1427 1425 1424 1422 1421 1418 1413 1412 1409
1476 1474 1471 1467 1464 1460 1458 1456 1454 1451 1448 1446 1444 1441 1439 1437 1436 1435 1434 1433 1433 1432 1432 1431 1431 1431 1430 1429 1428 1427 1426 1425 1424 1422 1421 1420 1418 1415 1414 1412 1408 1406 1404
1474 1471 1468 1465 1462 1459 1457 1455 1452 1450 1447 1444 1441 1439 1437 1436 1434 1433 1432 1431 1430 1429 1428 1428 1427 1426 1425 1423 1421 1420 1420 1419 1417 1416 1415 1413 1412 1410 1408 1406 1403 1400 1397
1470 1467 1465 1463 1461 1459 1456 1454 1452 1450 1447 1444 1441 1438 1435 1433 1432 1431 1430 1429 1428 1427 1425 1424 1423 1422 1422 1420 1420 1418 1417 1417 1416 1414 1412 1410 1408 1405 1404 1401 1398 1397 1393
1467 1465 1463 1461 1459 1457 1456 1454 1451 1449 1447 1444 1441 1439 1436 1434 1431 1429 1428 1427 1426 1425 1424 1423 1422 1420 1419 1417 1416 1415 1414 1412 1411 1410 1409 1407 1405 1402 1400 1398 1396 1395 1392
1464 1462 1460 1459 1457 1455 1454 1452 1450 1448 1446 1443 1440 1438 1436 1434 1432 1429 1428 1427 1427 1426 1424 1422 1421 1419 1417 1416 1414 1412 1411 1410 1408 1407 1406 1404 1402 1401 1399 1396 1393 1392 1390
1461 1459 1458 1456 1455 1453 1451 1450 1448 1446 1444 1441 1439 1437 1435 1433 1431 1429 1427 1425 1424 1423 1421 1419 1418 1416 1414 1413 1412 1411 1409 1409 1407 1405 1404 1402 1399 1396 1394 1392 1391 1388 1386
1457 1455 1454 1453 1452 1450 1449 1447 1445 1444 1441 1439 1437 1435 1433 1431 1429 1427 1425 1423 1421 1420 1419 1417 1415 1414 1412 1411 1409 1408 1407 1405 1404 1402 1401 1399 1397 1395 1392 1391 1388 1386 1384
1451 1451 1450 1449 1448 1447 1445 1443 1441 1440 1438 1436 1434 1432 1430 1429 1427 1425 1423 1422 1421 1419 1418 1416 1415 1413 1411 1410 1409 1407 1405 1404 1403 1401 1399 1397 1395 1393 1391 1389 1387 1386 1384
1445 1444 1444 1443 1442 1441 1440 1439 1438 1436 1434 1432 1430 1429 1427 1425 1424 1422 1421 1420 1419 1417 1417 1415 1413 1412 1411 1409 1407 1405 1404 1402 1400 1399 1397 1395 1393 1391 1389 1388 1386 1384 1382
1435 1436 1436 1435 1435 1435 1434 1433 1431 1431 1430 1428 1426 1425 1423 1422 1421 1420 1419 1417 1416 1415 1413 1412 1411 1410 1408 1407 1405 1403 1401 1399 1398 1396 1395 1393 1391 1390 1388 1386 1384 1383 1381
1426 1426 1427 1426 1426 1426 1425 1425 1423 1423 1422 1420 1419 1417 1417 1416 1415 1414 1413 1413 1412 1412 1410 1409 1408 1406 1405 1404 1402 1401 1399 1397 1395 1393 1392 1391 1389 1387 1386 1384 1383 1381 1380
1419 1419 1420 1419 1418 1417 1416 1415 1415 1414 1414 1413 1413 1411 1410 1409 1407 1407 1406 1406 1406 1406 1405 1404 1403 1403 1401 1400 1399 1397 1396 1394 1392 1391 1390 1388 1387 1385 1384 1383 1381 1380 1378
1412 1412 1411 1411 1411 1410 1409 1408 1407 1407 1405 1404 1404 1403 1402 1402 1400 1400 1399 1399 1399 1400 1399 1399 1398 1398 1397 1396 1396 1395 1394 1393 1391 1388 1387 1387 1385 1383 1382 1381 1380 1378 1376
1406 1406 1405 1404 1403 1402 1401 1400 1399 1397 1395 1394 1394 1394 1393 1393 1393 1393 1392 1391 1389 1390 1391 1391 1391 1391 1391 1391 1391 1390 1389 1388 1387 1385 1383 1383 1383 1381 1380 1379 1379 1377 1375
1402 1401 1400 1399 1397 1396 1395 1393 1391 1389 1388 1387 1385 1385 1386 1386 1385 1385 1385 1383 1382 1382 1384 1384 1385 1385 1386 1386 1385 1385 1385 1385 1384 1383 1381 1381 1380 1379 1377 1378 1377 1376 1374
1396 1395 1394 1392 1391 1389 1388 1387 1385 1382 1380 1379 1378 1377 1377 1377 1376 1377 1377 1376 1376 1375 1376 1378 1378 1378 1378 1379 1379 1379 1380 1379 1379 1379 1379 1377 1377 1376 1375 1375 1375 1375 1373
1391 1389 1388 1386 1384 1382 1380 1379 1378 1376 1374 1372 1372 1372 1370 1369 1369 1368 1368 1368 1367 1369 1368 1370 1371 1372 1372 1373 1373 1374 1374 1375 1375 1374 1373 1374 1374 1373 1373 1373 1373 1373 1371
1387 1385 1382 1380 1378 1376 1373 1371 1369 1367 1366 1364 1363 1364 1364 1363 1361 1361 1361 1361 1361 1361 1362 1361 1362 1364 1366 1367 1368 1369 1369 1370 1370 1370 1370 1371 1370 1369 1370 1371 1372 1371 1370
1382 1379 1376 1373 1370 1368 1366 1363 1361 1359 1357 1356 1355 1355 1355 1355 1355 1354 1354 1354 1355 1354 1354 1354 1355 1357 1359 1361 1362 1363 1364 1365 1365 1366 1366 1366 1366 1366 1367 1368 1369 1368 1368
1375 1372 1369 1366 1363 1359 1357 1355 1353 1351 1350 1348 1346 1347 1348 1348 1349 1348 1347 1346 1347 1347 1347 1348 1349 1350 1353 1355 1356 1357 1359 1360 1361 1362 1362 1362 1362 1363 1364 1365 1366 1366 1366
1369 1366 1363 1359 1355 1352 1348 1346 1345 1344 1344 1342 1340 1340 1341 1341 1342 1342 1341 1340 1340 1340 1341 1341 1343 1345 1347 1350 1352 1353 1355 1356 1357 1357 1358 1358 1359 1360 1361 1363 1364 1364 1364
1362 1359 1357 1353 1349 1346 1343 1339 1338 1337 1337 1338 1336 1336 1335 1335 1335 1335 1335 1335 1334 1335 1336 1337 1339 1341 1343 1345 1347 1349 1351 1352 1353 1354 1355 1355 1356 1357 1359 1360 1361 1361 1362